Wind_Speed
29 29 31 32 32 32 36 37 38 41 41 44 41 40 36 38 36 36 30 29 28 25 21 15 18 14 14 10 12 12 14 13 15 17 15 18 15 16 21 25 24 25 15 11 23 18 12 11 14 18 24 25 24 25
31 29 27 29 28 30 33 34 36 39 40 43 40 41 36 35 35 35 32 28 25 26 19 22 26 22 20 16 16 20 14 3 4 4 7 6 12 17 15 22 19 26 19 14 10 8 10 8 18 18 13 12 22 22
24 18 18 25 25 24 32 30 32 37 37 38 38 39 39 32 32 33 28 24 25 22 21 24 19 23 22 22 26 21 16 13 14 13 18 13 14 13 16 14 14 15 11 13 20 18 19 17 26 19 11 16 16 18
20 14 11 18 21 22 26 27 29 33 34 36 32 35 37 32 31 30 30 26 22 19 19 17 12 17 14 20 24 26 23 19 22 20 20 22 20 15 24 24 24 22 20 21 26 24 18 22 19 14 19 24 24 22
22 17 18 18 20 21 24 25 27 31 34 34 29 33 37 34 31 29 28 26 24 20 6 11 11 11 16 17 17 17 20 24 29 27 33 33 23 22 29 28 33 25 24 26 33 28 30 25 21 4 12 15 21 19
18 19 20 19 19 20 22 23 25 30 34 33 28 30 32 31 30 30 28 29 26 22 23 14 11 12 13 15 16 20 24 27 25 31 36 34 30 26 25 28 25 13 18 23 32 34 31 21 12 17 14 12 14 17
17 16 16 18 19 19 21 23 24 29 31 32 29 32 31 31 30 33 31 28 23 22 21 15 17 15 18 17 21 20 18 21 28 31 33 36 33 25 32 39 33 31 24 23 23 28 14 8 11 9 7 7 11 13
18 16 16 17 19 20 21 23 24 27 30 31 28 27 28 26 25 29 33 19 25 25 21 12 12 15 16 20 20 19 21 23 29 32 37 36 25 24 29 35 29 21 14 16 22 18 13 13 11 9 7 4 8 15
20 17 16 17 17 19 22 23 23 23 28 31 29 25 24 33 32 33 36 25 17 18 22 24 22 20 17 17 17 21 23 29 32 29 27 26 27 21 32 29 20 10 15 19 17 10 13 8 8 5 5 7 7 6
23 18 17 16 18 20 22 24 25 27 28 31 24 21 32 31 28 23 38 30 27 26 27 31 24 17 17 17 16 18 18 13 10 19 14 24 33 29 30 23 14 23 14 7 6 7 6 6 7 9 13 12 11 11
22 25 22 20 19 23 21 22 22 24 24 25 23 18 17 27 28 29 19 21 19 16 22 29 28 22 21 17 16 11 10 8 7 12 11 8 15 11 13 20 15 17 8 5 6 7 8 11 14 15 14 17 17 15
23 23 26 25 21 23 25 24 22 21 22 22 21 17 18 20 8 7 13 11 8 11 9 10 9 13 16 19 17 13 13 7 6 7 5 5 10 10 5 9 14 10 6 5 4 4 7 10 10 10 10 10 9 11
19 20 20 21 23 23 21 17 12 15 12 13 16 20 10 7 5 10 12 10 11 10 12 12 12 13 15 16 11 8 7 6 6 4 3 6 9 9 12 15 10 6 4 3 3 3 6 6 7 8 7 5 5 6
16 20 22 22 19 16 14 13 12 10 15 9 6 7 6 6 7 9 10 12 15 13 12 13 12 9 14 10 6 4 3 2 4 3 2 3 6 4 1 3 4 3 2 0 0 1 3 6 7 9 10 10 9 11
10 12 11 11 10 7 6 7 8 9 7 4 5 5 9 9 11 13 16 15 16 17 15 13 12 14 12 5 5 3 3 4 4 2 7 4 5 5 6 5 4 3 2 0 3 5 8 10 12 13 13 14 14 15
3 5 6 6 7 7 3 1 4 4 4 4 4 6 7 10 16 16 17 19 16 16 15 17 14 7 7 6 4 5 3 3 3 3 8 7 4 4 4 5 7 8 8 9 10 11 11 11 13 15 16 16 15 13
8 7 6 3 2 3 5 1 5 7 3 3 3 5 8 7 3 16 17 17 16 18 19 14 7 4 7 4 4 4 4 2 8 6 3 1 3 4 6 8 10 11 13 14 15 15 15 15 16 15 15 16 13 11
14 11 8 7 5 3 3 5 4 3 5 4 5 4 3 2 4 6 8 10 14 15 19 14 6 5 5 3 4 4 2 4 5 3 2 4 6 8 10 12 15 16 17 17 17 17 17 16 16 15 14 13 13 9
19 14 13 12 11 8 6 5 3 3 3 2 1 3 4 4 5 5 6 5 8 14 8 7 3 5 5 6 7 7 6 6 6 7 8 11 12 15 18 17 17 17 16 16 17 15 15 15 14 13 12 12 11 8
20 19 18 17 16 13 9 7 7 5 4 2 2 3 3 2 0 1 2 2 5 8 7 5 4 4 6 9 8 8 7 8 10 11 12 15 15 18 18 18 16 14 13 13 13 13 13 13 11 13 12 12 9 7
15 17 18 18 17 18 16 11 9 8 9 9 7 7 8 9 10 9 7 5 4 4 5 10 13 14 16 17 18 18 18 20 21 21 22 22 19 17 17 13 13 15 12 12 11 11 12 13 14 14 11 9 7 6
10 11 13 16 19 20 20 21 14 15 13 12 9 8 8 9 10 10 9 7 8 12 12 14 13 12 13 15 16 16 15 16 19 22 23 21 18 15 11 8 6 7 9 11 13 14 14 13 12 11 9 7 6 6
9 8 7 10 10 12 10 16 17 17 10 9 11 9 9 8 6 4 4 9 12 12 11 10 10 9 10 10 10 11 12 13 14 16 15 14 13 11 9 7 6 7 9 9 10 10 9 7 8 8 8 7 7 7
8 8 8 4 7 5 8 7 10 10 11 11 7 8 9 9 5 6 5 5 8 10 10 9 9 9 10 12 12 12 12 12 11 11 11 10 7 7 6 6 7 8 9 10 9 8 6 5 6 7 7 7 8 8
7 5 3 2 4 5 6 8 10 9 9 13 10 5 7 7 5 2 7 4 3 7 7 6 6 7 7 8 9 10 9 9 9 9 8 11 12 12 12 11 12 12 12 11 10 9 8 7 6 7 8 8 8 9
4 2 2 4 5 3 5 5 8 9 10 10 9 5 5 7 6 5 10 11 9 6 7 8 8 9 12 13 11 9 9 9 9 9 9 10 13 15 17 17 17 16 15 14 12 10 9 9 8 8 8 9 9 9
7 7 6 5 5 4 2 4 6 5 6 4 5 7 7 5 5 6 9 9 7 7 8 10 13 13 13 13 13 11 9 7 7 8 9 10 11 12 13 14 15 14 12 9 9 10 11 11 10 10 11 11 10 10
10 11 6 7 7 3 7 7 5 2 4 6 8 5 5 6 7 10 8 8 8 10 12 14 15 15 16 14 14 13 13 12 9 7 7 8 9 9 10 11 11 11 11 11 10 10 11 12 11 11 11 11 11 10
13 11 5 9 9 8 5 4 3 2 3 7 5 2 8 9 7 5 6 8 11 12 14 15 15 14 14 13 13 11 11 11 10 7 6 6 5 5 6 7 7 8 9 9 8 9 8 9 9 9 10 10 12 13
15 15 13 10 4 6 8 6 4 6 7 7 8 5 5 6 6 7 7 7 8 9 10 10 10 10 9 8 8 8 9 9 8 6 5 3 2 4 5 5 4 4 5 6 7 8 9 9 9 9 10 10 11 10
12 12 9 10 9 12 12 8 7 6 5 6 5 8 7 8 6 6 5 5 5 5 6 7 5 3 3 3 3 5 6 9 10 10 8 7 5 4 5 6 6 5 5 5 5 6 6 7 8 9 9 9 9 9
12 13 15 16 15 11 10 9 5 7 2 9 14 10 12 15 13 10 6 5 6 6 6 4 2 2 3 2 2 2 4 6 7 11 12 11 11 10 9 9 9 8 7 7 7 6 6 7 8 8 8 9 9 8
11 8 11 13 11 9 9 8 3 6 4 8 13 20 23 18 16 11 9 6 4 4 4 4 2 3 2 2 4 6 7 8 8 9 10 12 13 14 14 14 13 12 9 8 8 8 7 7 7 8 9 9 8 7
Wind_Direction
294 281 263 248 240 231 224 221 218 215 214 214 215 209 210 212 210 214 214 217 222 231 227 220 240 240 250 254 262 257 254 246 236 225 235 244 254 255 257 260 263 274 278 291 240 230 247 267 272 245 251 261 270 262
304 287 257 236 224 220 214 218 213 212 209 209 209 205 208 209 208 212 214 216 222 233 240 236 226 232 229 226 248 244 247 265 317 278 274 289 291 280 269 266 254 263 271 278 257 279 263 235 309 282 266 325 245 265
332 314 233 210 204 206 203 206 208 205 203 204 207 200 200 203 204 208 209 206 212 224 238 242 239 236 230 220 226 232 230 245 256 259 280 278 273 280 280 283 281 263 277 280 297 289 276 277 271 307 227 287 276 262
17 45 122 163 175 180 185 188 192 194 193 190 193 190 192 196 198 199 199 203 207 219 237 238 240 229 226 226 229 238 249 241 239 255 260 262 265 270 273 275 279 278 288 289 286 304 285 263 288 273 263 277 289 289
45 78 104 128 145 159 166 173 178 181 180 183 185 183 189 190 193 196 200 207 208 205 232 238 240 231 229 232 241 251 261 267 265 267 256 258 264 268 267 269 263 264 271 276 285 287 290 285 253 271 317 309 300 306
61 85 102 114 128 144 158 163 167 171 175 177 179 180 187 186 194 189 200 209 204 207 233 258 238 244 250 248 254 264 278 277 262 274 258 258 266 256 266 266 266 273 260 267 270 280 292 289 327 289 297 309 297 330
73 91 104 116 122 131 145 157 163 166 170 175 177 178 173 184 196 196 202 208 200 210 225 258 271 267 262 259 272 276 267 260 264 270 263 261 265 246 259 261 271 269 252 262 278 283 282 332 300 277 278 296 301 326
70 94 104 113 126 130 138 147 156 163 166 170 174 178 183 186 196 205 207 208 205 215 223 237 254 263 277 281 275 280 273 265 270 272 262 261 268 255 256 257 266 267 269 260 275 292 298 277 265 270 280 287 320 329
67 87 104 115 124 131 137 142 148 156 166 168 169 165 182 184 197 209 203 206 203 213 224 236 244 267 268 274 245 260 272 276 284 268 261 246 252 243 252 254 266 279 262 265 247 264 261 268 278 284 286 298 296 274
64 74 88 113 117 132 133 138 149 158 164 166 165 177 181 185 204 208 203 215 224 241 250 251 257 247 265 273 273 282 293 262 263 269 264 237 254 255 249 246 250 268 268 319 280 256 261 269 279 290 297 294 275 252
66 68 82 97 131 136 139 150 147 152 158 161 173 184 166 185 203 197 190 203 204 213 231 253 251 243 257 258 266 271 277 265 261 256 225 246 265 292 246 234 242 277 259 214 237 255 263 280 289 291 289 285 283 286
70 73 82 92 99 109 128 142 153 158 175 181 189 188 164 166 176 163 160 168 195 209 230 231 240 224 227 252 261 269 256 260 262 166 216 271 277 277 256 214 228 198 228 211 232 265 290 298 292 284 285 281 271 264
68 73 84 86 97 101 104 113 128 143 125 139 152 176 165 166 180 169 174 178 190 204 195 209 211 213 229 240 243 252 224 249 302 227 251 337 13 134 136 131 157 181 198 200 235 299 291 303 331 328 314 293 268 237
84 93 96 90 86 91 105 114 119 123 126 156 161 179 184 214 204 201 195 228 223 224 196 202 218 229 247 221 237 257 285 303 281 251 155 158 128 110 116 149 161 177 203 94 189 269 346 351 340 326 313 304 294 288
111 116 104 85 78 97 112 115 123 136 164 177 196 219 230 215 217 199 199 204 209 205 207 215 240 250 245 184 188 222 249 251 249 316 133 147 136 127 112 110 117 113 120 232 331 338 334 328 314 310 306 301 296 293
171 147 140 117 86 67 70 220 241 242 242 224 243 272 277 251 236 235 216 203 213 213 205 217 227 245 169 169 194 209 243 268 213 146 132 121 92 54 17 354 343 333 324 315 309 306 304 305 315 314 309 303 299 298
231 219 212 208 138 75 27 214 197 195 225 233 247 275 299 319 257 204 192 198 205 209 220 233 216 178 137 182 206 214 246 190 153 144 123 37 330 311 302 294 288 285 287 290 292 294 298 303 304 306 306 302 295 291
232 230 226 249 280 302 332 357 319 270 246 265 280 300 213 161 127 126 152 179 195 201 214 233 127 148 164 175 183 195 237 202 209 237 257 294 294 300 302 301 301 299 299 301 301 297 289 284 284 287 295 298 292 289
231 232 228 237 254 269 276 295 298 310 344 22 108 75 89 107 131 149 166 166 187 203 235 128 158 174 192 228 238 247 257 242 245 257 280 289 301 310 315 311 308 306 300 299 294 289 281 274 273 281 287 288 284 284
230 232 231 232 236 240 240 256 259 258 283 297 259 258 262 272 310 65 107 168 217 218 225 218 217 233 233 235 245 247 247 254 265 275 285 284 304 313 310 303 297 297 283 281 288 284 279 280 287 287 281 278 276 273
226 225 226 224 221 222 227 226 239 256 258 268 281 270 264 259 261 275 278 290 267 218 222 225 237 246 254 260 261 261 264 271 269 268 272 280 291 300 309 285 264 268 274 280 280 290 288 281 277 274 272 266 260 258
218 219 221 220 223 225 227 235 237 253 255 266 273 271 261 271 259 258 272 264 233 231 234 236 249 262 273 278 283 282 278 273 270 273 277 279 282 288 290 280 301 311 297 290 289 292 288 276 265 265 259 250 243 240
207 191 182 223 222 223 227 242 237 243 245 251 250 244 243 246 223 230 231 223 235 244 249 259 264 271 282 285 280 280 285 289 281 273 274 271 272 276 282 260 283 300 300 300 302 302 293 273 257 250 243 236 232 228
181 186 199 212 198 216 228 216 217 211 223 221 229 220 212 212 189 190 229 205 215 230 233 242 261 276 288 287 282 284 291 288 292 283 269 245 261 245 264 279 284 290 297 295 288 288 285 272 255 243 237 232 228 222
140 146 142 150 196 223 212 212 210 205 215 211 202 178 184 185 183 195 139 131 251 223 225 244 263 280 305 317 307 285 278 293 289 289 275 243 249 263 261 268 272 279 280 282 276 269 269 272 266 251 242 236 229 224
125 99 100 172 157 162 184 198 204 203 205 204 217 218 184 178 184 175 159 179 215 250 270 276 280 286 292 295 301 315 287 271 280 286 282 265 256 255 258 267 272 276 276 276 265 257 260 263 264 253 242 234 232 229
50 44 66 89 128 111 211 204 173 180 173 166 177 179 178 161 177 159 199 220 237 260 268 276 284 288 291 289 285 279 279 288 280 280 283 281 277 272 267 265 267 269 263 260 260 255 253 256 258 249 239 232 230 229
35 34 61 86 90 77 162 149 135 103 168 181 166 188 193 194 162 199 214 239 260 276 285 285 283 287 288 287 285 275 264 262 267 282 298 300 290 275 263 265 267 263 258 265 261 248 244 251 251 244 236 230 228 223
18 20 56 71 85 72 87 93 91 162 163 175 173 316 203 218 206 235 272 285 288 287 286 286 286 285 283 276 277 274 268 256 247 257 283 301 309 300 288 279 268 257 257 261 254 247 246 244 242 239 235 225 225 229
6 13 12 352 37 7 318 299 282 245 246 223 238 232 214 218 244 270 283 288 296 299 298 293 284 277 271 264 264 265 259 240 223 233 257 278 325 347 353 343 316 285 271 264 253 248 247 243 240 231 228 232 228 227
345 350 331 337 329 312 311 292 264 238 251 178 233 246 262 248 249 261 267 287 307 322 329 323 308 274 254 245 233 248 226 218 225 230 236 244 262 298 322 333 334 315 296 277 259 244 234 228 228 228 226 221 221 225
340 344 338 336 324 325 323 314 256 191 208 230 204 197 208 222 229 237 246 283 304 330 335 332 298 245 228 216 185 209 214 225 230 231 238 248 260 271 283 293 304 309 298 279 259 245 236 230 227 224 222 219 221 225
339 353 318 315 330 346 348 338 218 187 294 233 209 199 203 219 227 230 235 245 259 290 324 338 319 279 290 297 281 270 263 259 256 254 254 258 263 269 274 280 284 283 275 261 250 240 235 234 230 225 221 218 220 233
Height
2799 2795 2793 2795 2800 2806 2813 2821 2830 2839 2849 2859 2869 2878 2886 2895 2903 2909 2918 2923 2929 2932 2936 2940 2942 2946 2948 2951 2953 2954 2954 2951 2952 2952 2953 2951 2947 2947 2944 2942 2942 2941 2941 2937 2932 2937 2934 2933 2933 2935 2936 2933 2934 2933
2784 2778 2776 2781 2789 2796 2804 2813 2822 2832 2842 2852 2862 2873 2882 2890 2899 2906 2913 2919 2925 2928 2931 2933 2936 2940 2943 2946 2947 2947 2949 2949 2948 2949 2948 2945 2943 2941 2939 2936 2939 2938 2938 2935 2937 2926 2930 2927 2930 2929 2926 2925 2927 2928
2772 2761 2760 2770 2781 2789 2799 2808 2817 2827 2836 2847 2857 2868 2878 2887 2894 2902 2910 2917 2920 2924 2928 2929 2931 2934 2936 2938 2941 2942 2944 2947 2947 2948 2945 2943 2941 2940 2937 2934 2932 2932 2932 2930 2929 2929 2927 2926 2923 2920 2922 2923 2923 2924
2774 2765 2765 2772 2781 2789 2798 2807 2815 2824 2835 2846 2855 2865 2875 2884 2892 2899 2906 2913 2919 2923 2924 2926 2926 2928 2932 2934 2935 2937 2940 2941 2941 2942 2940 2938 2938 2936 2932 2931 2929 2931 2930 2926 2923 2923 2921 2923 2924 2921 2920 2919 2918 2917
2783 2779 2779 2782 2788 2794 2802 2809 2817 2825 2835 2846 2855 2864 2874 2882 2891 2898 2905 2910 2916 2923 2922 2924 2924 2927 2928 2930 2933 2935 2936 2936 2935 2935 2932 2930 2932 2932 2926 2925 2919 2926 2925 2924 2919 2920 2919 2914 2913 2914 2916 2915 2912 2911
2794 2792 2792 2794 2797 2802 2807 2814 2821 2829 2838 2848 2857 2865 2873 2882 2889 2896 2902 2907 2912 2918 2920 2921 2923 2923 2925 2927 2929 2930 2929 2928 2927 2925 2923 2921 2923 2926 2919 2915 2916 2919 2921 2920 2914 2917 2913 2911 2906 2915 2914 2911 2910 2909
2803 2802 2802 2803 2806 2809 2813 2819 2825 2833 2841 2850 2858 2865 2872 2881 2887 2893 2899 2905 2911 2915 2918 2920 2918 2919 2921 2923 2922 2922 2921 2920 2919 2917 2913 2913 2915 2917 2912 2906 2911 2912 2913 2912 2912 2911 2909 2911 2912 2911 2910 2909 2907 2908
2812 2810 2811 2812 2814 2817 2820 2825 2830 2837 2845 2853 2860 2867 2874 2881 2889 2892 2898 2903 2909 2912 2917 2918 2916 2917 2917 2917 2917 2915 2914 2913 2909 2908 2907 2906 2907 2907 2901 2900 2903 2905 2905 2906 2909 2906 2905 2911 2909 2908 2907 2907 2907 2905
2820 2818 2818 2819 2821 2824 2827 2831 2836 2842 2848 2855 2861 2868 2872 2877 2883 2889 2895 2902 2907 2913 2911 2911 2913 2915 2913 2913 2913 2912 2910 2905 2901 2896 2896 2900 2897 2895 2891 2895 2897 2898 2899 2900 2901 2902 2905 2906 2905 2904 2905 2905 2905 2906
2829 2827 2826 2826 2828 2830 2833 2837 2842 2846 2851 2858 2864 2870 2873 2877 2884 2890 2895 2900 2904 2905 2906 2905 2910 2910 2910 2909 2909 2908 2903 2899 2894 2891 2892 2889 2883 2885 2887 2889 2893 2893 2893 2894 2898 2900 2900 2901 2901 2901 2902 2902 2902 2902
2838 2835 2832 2833 2833 2836 2840 2844 2848 2852 2856 2861 2865 2870 2874 2880 2884 2886 2889 2895 2897 2899 2900 2901 2903 2905 2905 2907 2906 2904 2900 2895 2891 2887 2885 2882 2879 2879 2880 2883 2888 2890 2890 2893 2895 2897 2898 2898 2898 2898 2898 2897 2897 2898
2846 2844 2842 2841 2842 2843 2845 2849 2853 2858 2861 2865 2869 2871 2875 2879 2882 2884 2886 2891 2892 2895 2896 2895 2897 2899 2903 2902 2902 2900 2896 2893 2888 2883 2884 2880 2877 2876 2878 2881 2886 2890 2890 2892 2894 2895 2896 2896 2896 2895 2895 2894 2894 2894
2854 2851 2851 2851 2851 2852 2854 2856 2859 2860 2864 2866 2870 2874 2876 2879 2880 2881 2881 2885 2888 2890 2892 2894 2895 2896 2897 2899 2898 2895 2891 2889 2886 2885 2883 2881 2876 2877 2879 2882 2886 2889 2890 2891 2892 2892 2894 2894 2893 2892 2892 2891 2892 2892
2860 2859 2858 2858 2859 2859 2860 2861 2862 2864 2866 2870 2872 2873 2874 2875 2875 2875 2878 2881 2885 2888 2889 2891 2892 2893 2893 2893 2892 2891 2890 2888 2886 2884 2883 2883 2883 2883 2884 2885 2887 2889 2889 2890 2891 2893 2892 2891 2891 2891 2891 2891 2890 2890
2863 2863 2863 2863 2864 2865 2865 2865 2866 2867 2868 2870 2871 2871 2870 2871 2871 2873 2875 2878 2881 2883 2885 2887 2888 2890 2888 2886 2889 2890 2889 2887 2885 2881 2882 2884 2885 2886 2886 2887 2889 2889 2890 2891 2890 2890 2890 2890 2891 2890 2889 2888 2886 2885
2863 2864 2865 2865 2866 2865 2865 2865 2866 2866 2867 2868 2868 2868 2867 2866 2867 2868 2871 2874 2877 2879 2882 2883 2884 2885 2882 2885 2886 2886 2887 2884 2884 2883 2884 2886 2886 2886 2887 2887 2887 2887 2888 2889 2889 2890 2890 2890 2889 2888 2886 2885 2883 2882
2862 2862 2863 2864 2866 2866 2865 2865 2865 2866 2866 2867 2867 2866 2865 2864 2860 2864 2867 2871 2874 2877 2879 2880 2879 2880 2882 2883 2885 2885 2884 2884 2884 2885 2886 2886 2887 2887 2888 2889 2889 2889 2889 2889 2888 2888 2887 2886 2886 2885 2884 2883 2882 2881
2859 2860 2862 2863 2864 2865 2865 2864 2865 2865 2864 2865 2865 2864 2864 2864 2865 2866 2867 2869 2872 2874 2876 2874 2877 2879 2881 2882 2883 2883 2884 2884 2885 2886 2886 2887 2887 2887 2886 2886 2885 2884 2883 2883 2882 2882 2881 2882 2882 2881 2881 2880 2880 2878
2856 2858 2860 2861 2862 2864 2864 2865 2865 2864 2864 2864 2865 2865 2865 2865 2866 2867 2868 2869 2871 2872 2871 2873 2877 2878 2880 2881 2881 2882 2883 2884 2884 2884 2884 2884 2884 2883 2881 2881 2880 2879 2879 2878 2878 2878 2878 2878 2877 2877 2877 2877 2877 2876
2852 2854 2856 2858 2860 2862 2863 2864 2864 2864 2864 2864 2864 2865 2866 2866 2867 2868 2869 2870 2871 2872 2873 2875 2877 2877 2878 2878 2879 2880 2881 2881 2882 2882 2881 2880 2880 2879 2878 2877 2876 2877 2877 2877 2876 2875 2875 2875 2874 2874 2874 2874 2874 2873
2847 2849 2852 2854 2856 2858 2860 2860 2860 2861 2861 2862 2863 2863 2864 2864 2865 2866 2867 2868 2869 2871 2873 2873 2873 2873 2874 2875 2876 2876 2877 2878 2878 2877 2877 2877 2877 2876 2875 2874 2874 2874 2873 2873 2873 2871 2870 2870 2871 2871 2871 2871 2871 2871
2844 2845 2847 2849 2851 2853 2855 2855 2857 2858 2860 2860 2861 2861 2861 2862 2862 2864 2865 2866 2867 2867 2869 2869 2870 2870 2871 2871 2871 2871 2870 2870 2870 2870 2870 2871 2871 2872 2872 2871 2871 2870 2870 2870 2869 2867 2866 2867 2867 2867 2868 2868 2869 2870
2842 2844 2846 2846 2848 2849 2851 2851 2853 2854 2856 2857 2858 2859 2859 2860 2861 2863 2863 2863 2864 2864 2865 2866 2867 2868 2868 2868 2867 2867 2866 2866 2865 2865 2865 2866 2866 2868 2868 2868 2868 2868 2868 2867 2866 2865 2864 2864 2864 2865 2866 2866 2867 2868
2841 2843 2844 2845 2846 2847 2847 2848 2849 2851 2852 2854 2855 2855 2856 2857 2859 2860 2860 2861 2862 2862 2863 2864 2865 2865 2865 2865 2864 2864 2863 2862 2861 2860 2860 2862 2863 2864 2865 2865 2865 2865 2865 2865 2864 2863 2863 2863 2863 2863 2864 2865 2865 2866
2843 2845 2846 2845 2845 2846 2846 2847 2847 2849 2850 2851 2852 2852 2853 2856 2858 2859 2860 2861 2860 2860 2861 2862 2863 2863 2862 2861 2860 2860 2860 2859 2858 2858 2858 2859 2860 2861 2861 2862 2863 2863 2862 2862 2862 2861 2861 2861 2861 2861 2862 2863 2864 2865
2841 2842 2843 2842 2843 2844 2844 2846 2846 2847 2848 2849 2850 2851 2853 2855 2856 2858 2857 2857 2857 2858 2859 2859 2860 2860 2859 2859 2858 2857 2857 2856 2856 2856 2856 2856 2856 2856 2857 2857 2858 2859 2858 2858 2858 2858 2858 2859 2859 2859 2860 2861 2862 2863
2843 2843 2843 2843 2843 2843 2845 2845 2845 2846 2847 2848 2849 2850 2852 2853 2854 2854 2854 2854 2855 2856 2856 2856 2856 2856 2855 2855 2855 2855 2854 2854 2853 2853 2853 2853 2852 2853 2853 2853 2853 2853 2853 2854 2854 2855 2855 2856 2856 2857 2858 2859 2860 2861
2847 2845 2844 2843 2842 2843 2843 2844 2844 2844 2845 2847 2849 2849 2850 2849 2850 2850 2852 2852 2853 2853 2853 2852 2852 2851 2851 2850 2850 2850 2851 2851 2851 2851 2850 2850 2849 2849 2848 2848 2849 2849 2849 2850 2850 2851 2852 2852 2853 2854 2855 2856 2858 2859
2848 2846 2845 2843 2842 2842 2843 2844 2844 2844 2845 2846 2846 2845 2846 2847 2848 2849 2850 2850 2850 2850 2849 2848 2848 2847 2846 2846 2846 2846 2846 2847 2848 2848 2848 2848 2847 2847 2846 2846 2846 2846 2846 2847 2847 2848 2848 2849 2850 2851 2852 2854 2855 2856
2849 2848 2847 2846 2845 2845 2844 2843 2844 2844 2844 2844 2844 2845 2845 2846 2846 2847 2847 2847 2847 2846 2845 2844 2843 2843 2842 2842 2842 2843 2843 2843 2845 2846 2846 2847 2847 2846 2845 2845 2844 2844 2844 2844 2844 2845 2846 2846 2848 2849 2850 2851 2852 2854
2852 2849 2849 2846 2845 2844 2842 2841 2841 2842 2842 2843 2842 2843 2844 2844 2845 2845 2846 2846 2845 2845 2844 2842 2841 2840 2840 2840 2840 2840 2840 2841 2842 2843 2844 2844 2845 2845 2844 2844 2843 2843 2842 2842 2842 2843 2844 2844 2845 2847 2848 2849 2850 2852
2850 2849 2847 2845 2844 2841 2840 2838 2839 2840 2841 2840 2841 2841 2842 2841 2842 2843 2844 2844 2844 2844 2843 2842 2841 2840 2839 2839 2839 2839 2839 2839 2840 2840 2841 2842 2842 2842 2842 2842 2842 2841 2841 2841 2841 2841 2842 2843 2844 2845 2846 2847 2848 2849
2849 2847 2846 2843 2841 2839 2838 2837 2836 2838 2837 2836 2837 2837 2836 2839 2839 2841 2841 2842 2843 2842 2842 2841 2840 2840 2839 2839 2838 2838 2838 2838 2838 2838 2838 2838 2838 2838 2838 2839 2838 2838 2838 2838 2839 2839 2840 2841 2842 2843 2844 2846 2847 2848